This demonstration page uses our WeatherBlox Daily Observations layout. Learn more.

Left ArrowRight Arrow

44.89941, -97.11507

Hourly Observations for April 16, 2016

Temp ( °F °C ) Dew Point ( °F °C ) Humidity (%) Winds ( mph kmh ) Pressure ( in mb ) Visibility ( mi km ) Precip ( " mm )
12:53 am 00:53 Clear 61 16.1 47 8.3 60 60 SSE 16 26 29.91 1013 10 16 0.00 0.00
1:53 am 01:53 Mostly Clear 61 16.1 48 8.9 63 63 SSE 14 22 29.92 1013 10 16 0.00 0.00
2:53 am 02:53 Mostly Cloudy 60 15.6 49 9.4 67 67 S 16 26 29.92 1013 10 16 0.00 0.00
3:53 am 03:53 Clear 58 14.4 48 8.9 70 70 SSE 12 19 29.93 1014 10 16 0.00 0.00
4:53 am 04:53 Clear 56 13.3 48 8.9 75 75 SSE 13 20 29.96 1015 10 16 0.00 0.00
5:53 am 05:53 Clear 55 12.8 48 8.9 77 77 SSE 13 20 29.97 1015 10 16 0.00 0.00
6:53 am 06:53 Sunny 54 12.2 48 8.9 80 80 SSE 15 24 30.00 1016 10 16 0.00 0.00
7:53 am 07:53 Mostly Cloudy 57 13.9 49 9.4 74 74 SSE 15 24 30.00 1016 10 16 0.00 0.00
8:53 am 08:53 Cloudy 59 15 50 10 72 72 SSE 17 28 30.00 1016 10 16 0.00 0.00
9:53 am 09:53 Cloudy 62 16.7 51 10.6 67 67 S 15 24 30.01 1016 10 16 0.00 0.00
10:53 am 10:53 Mostly Sunny 68 20 52 11.1 57 57 SSE 14 22 30.01 1016 10 16 0.00 0.00
11:53 am 11:53 Cloudy 69 20.6 53 11.7 57 57 S 20 31 30.01 1016 10 16 0.00 0.00
12:53 pm 12:53 Cloudy 69 20.6 52 11.1 55 55 S 20 31 30.02 1017 10 16 0.00 0.00
1:53 pm 13:53 Mostly Cloudy 72 22.2 51 10.6 48 48 S 20 31 30.01 1016 10 16 0.00 0.00
2:53 pm 14:53 Mostly Cloudy 72 22.2 50 10 46 46 SSE 23 37 30.01 1016 10 16 0.00 0.00
3:33 pm 15:33 Cloudy 67 19.4 53 11.7 61 61 SW 15 24 29.97 1015 10 16 0.00 0.00
3:53 pm 15:53 Cloudy 67 19.4 54 12.2 63 63 SW 14 22 30.03 1017 10 16 0.00 0.00
4:28 pm 16:28 Cloudy with Rain 63 17.2 57 13.9 81 81 SW 23 37 30.00 1016 2 3 0.08 2.03
4:49 pm 16:49 Cloudy with Light Rain 63 17 57 14 83 83 S 7 11 30.00 1016 10 16 0.14 3.56
4:53 pm 16:53 Cloudy with Light Rain 62 16.7 58 14.4 86 86 S 7 11 30.06 1018 10 16 0.14 3.56
5:53 pm 17:53 Cloudy 64 17.8 58 14.4 81 81 Calm 30.06 1018 10 16 0.00 0.03
6:53 pm 18:53 Cloudy with Light Rain 58 14.4 54 12.2 87 87 WNW 9 15 30.11 1020 5 8 0.04 1.02
7:34 pm 19:34 Cloudy 57 13.9 54 12.2 90 90 WNW 7 11 30.09 1019 10 16 0.00 0.03
7:53 pm 19:53 Cloudy 56 13.3 53 11.7 90 90 NW 5 7 30.11 1020 10 16 0.00 0.03
8:26 pm 20:26 Cloudy 55 12.8 52 11.1 90 90 WNW 3 6 30.09 1019 10 16 0.01 0.25
8:53 pm 20:53 Mostly Clear 55 12.8 52 11.1 90 90 NNW 3 6 30.13 1020 10 16 0.01 0.25
9:53 pm 21:53 Mostly Clear 55 12.8 52 11.1 90 90 W 5 7 30.15 1021 10 16 0.00 0.00
10:32 pm 22:32 Cloudy 55 12.8 52 11.1 90 90 W 8 13 30.12 1020 10 16 0.00 0.00
10:37 pm 22:37 Cloudy 54 12.2 52 11.1 93 93 W 9 15 30.15 1021 8 13 0.00 0.00
10:53 pm 22:53 Cloudy 53 11.7 51 10.6 93 93 W 9 15 30.16 1021 7 11 0.00 0.00
11:53 pm 23:53 Cloudy 51 10.6 49 9.4 92 92 NW 8 13 30.17 1022 9 14 0.00 0.03

Powered by AerisWeather